[[{"header":{"parameterUnit":"m.s-1","parameterCategory":1,"la1":30.2991,"la2":30.254,"lo1":-89.0895,"lo2":-89.0444,"dy":0.0017,"dx":0.0017,"nx":28,"ny":28,"refTime":"2025-01-20T09:00:00:Z","depth":0,"parameterNumber":2,"parameterNumberName":"U-component_of_WINDS"},"data":[0,0,0,0,0,0,0,0,0,0,0,0,0,0,0,0,0,0,0,0,0,0,0,0,0,0,0,0,0,0,0,0,0,0,0,0,0,0,0,0,0,0,0,0,0,0,0,0,0,0,0,0,0,0,0,0,0,0,-6.087,-6.0871,0,-6.1013,-6.1015,-6.1017,-6.0902,-6.0897,-6.0892,-6.0887,-6.1035,-6.1043,-6.1052,0,0,0,0,0,0,0,0,0,0,0,0,0,-6.0494,-6.0501,-6.0869,-6.0871,-6.0873,-6.1013,-6.1015,-6.1017,-6.0902,-6.0896,-6.0891,-6.0885,-6.1032,-6.1042,-6.1052,0,0,0,0,0,0,0,0,0,0,0,0,0,-6.0649,-6.0504,-6.0869,-6.0833,-6.0831,-6.1013,-6.1015,-6.1018,-6.0904,-6.0896,-6.0889,-6.0882,-6.1029,-6.1041,-6.1054,-6.128,0,0,-6.1093,-6.1098,0,0,0,0,0,0,0,0,-6.0641,-6.0663,-6.0836,-6.0835,-6.0834,-6.0932,-6.0937,-6.1105,-6.0906,-6.0876,-6.0887,-6.0879,-6.1007,-6.1021,-6.1064,-6.1286,-6.1293,-6.1094,-6.1102,-6.1107,-6.1111,0,0,0,0,0,0,0,-6.063,-6.0657,-6.0926,-6.0839,-6.0837,-6.0809,-6.0823,-6.0968,-6.0981,-6.0878,-6.087,-6.0889,-6.1005,-6.1052,-6.1067,-6.1295,-6.1094,-6.1105,-6.1113,-6.1118,-6.1708,-6.1716,0,0,0,0,0,0,-6.0623,-6.0648,-6.0922,-6.0931,-6.0717,-6.0821,-6.0837,-6.0908,-6.0979,-6.0983,-6.0895,-6.0883,-6.1034,-6.1052,-6.1071,-6.134,-6.1107,-6.1119,-6.1126,-6.17,-6.171,-6.1718,0,0,0,0,0,0,-6.0615,-6.0649,-6.0916,-6.0787,-6.0819,-6.0836,-6.0916,-6.0915,-6.0962,-6.0992,-6.0993,-6.0941,-6.1029,-6.1053,-6.1228,-6.1343,-6.1125,-6.1136,-6.1691,-6.1703,-6.1714,-6.1879,0,0,0,0,0,0,-6.0605,-6.0647,-6.0733,-6.079,-6.0827,-6.1072,-6.0923,-6.0923,-6.0984,-6.097,-6.1035,-6.1039,-6.1025,-6.121,-6.1241,-6.1357,-6.1146,-6.168,-6.1696,-6.171,-6.1863,-6.1895,-6.1922,0,0,0,0,0,-6.0592,-6.0774,-6.0738,-6.0772,-6.0935,-6.1078,-6.1099,-6.1079,-6.0994,-6.1081,-6.1099,-6.1037,-6.1325,-6.1229,-6.1263,-6.1384,-6.1673,-6.1692,-6.1709,-6.185,-6.1889,-6.1921,0,0,0,0,0,0,-6.073,-6.0781,-6.0742,-6.0947,-6.1009,-6.1059,-6.1168,-6.1121,-6.1208,-6.1191,-6.1162,-6.1178,-6.1362,-6.139,-6.1282,-6.1605,-6.1485,-6.1511,-6.1581,-6.1618,-6.1647,-6.1637,-6.1157,0,0,0,0,0,-6.0785,-6.0897,-6.0935,-6.1113,-6.1146,-6.1152,-6.1213,-6.1192,-6.1255,-6.1281,-6.1313,-6.1376,-6.1481,-6.155,-6.1648,-6.1866,-6.1878,-6.1966,-6.1995,-6.2019,-6.2042,-6.2158,-6.2198,-6.1778,-6.1778,-6.1777,0,0,-6.0898,-6.094,-6.1013,-6.1142,-6.1187,-6.1304,-6.1175,-6.1304,-6.139,-6.1301,-6.1468,-6.1493,-6.1562,-6.1759,-6.1847,-6.1788,-6.2161,-6.2042,-6.2061,-6.2071,-6.2181,-6.2221,-6.2256,-6.179,-6.1788,-6.1786,0,0,-6.1165,-6.1208,-6.136,-6.1408,-6.1479,-6.1481,-6.1518,-6.1574,-6.1587,-6.1754,-6.1689,-6.1791,-6.1972,-6.2023,-6.2073,-6.2358,-6.2303,-6.239,-6.2545,-6.2658,-6.2691,-6.272,-6.2822,-6.2858,-6.2413,-6.2413,-6.2413,0,-6.1298,-6.1471,-6.1445,-6.1579,-6.1637,-6.156,-6.1714,-6.1762,-6.1861,-6.1903,-6.1835,-6.206,-6.2101,-6.2308,-6.2377,-6.242,-6.2461,-6.2383,-6.2689,-6.2718,-6.2744,-6.2841,-6.2879,-6.2423,-6.2422,-6.2421,-6.242,0,-6.1631,-6.1752,-6.1866,-6.1963,-6.2034,-6.2178,-6.2172,-6.2247,-6.2219,-6.2228,-6.2399,-6.2445,-6.255,-6.2598,-6.2572,-6.2802,-6.2762,-6.2692,-6.2571,-6.2795,-6.2885,-6.2922,-6.2438,-6.2434,-6.2431,-6.2428,0,0,-6.1991,-6.207,-6.2113,-6.2155,-6.2226,-6.2319,-6.2458,-6.2561,-6.2625,-6.2695,-6.2811,-6.2965,-6.29,-6.2957,-6.2936,-6.3035,-6.3257,-6.2953,-6.2954,-6.3008,-6.3512,-6.3565,-6.3608,-6.3221,-6.3228,-6.3233,-6.3506,0,-6.2261,-6.2503,-6.2483,-6.2712,-6.2823,-6.2751,-6.2872,-6.2928,-6.294,-6.3036,-6.3048,-6.3158,-6.3064,-6.3097,-6.3192,-6.321,-6.3358,-6.319,-6.3328,-6.3333,-6.3314,-6.3655,-6.3712,-6.3968,-6.3541,-6.3547,-6.3551,0,-6.2609,-6.2691,-6.2932,-6.2984,-6.303,-6.314,-6.3231,-6.3323,-6.3385,-6.3387,-6.3449,-6.3411,-6.355,-6.3425,-6.3616,-6.3502,-6.3557,-6.3574,-6.3583,-6.3596,-6.3457,-6.3678,-6.4049,-6.4087,-6.3607,-6.3602,-6.3598,0,-6.2848,-6.3018,-6.3184,-6.3222,-6.3288,-6.3366,-6.3397,-6.3452,-6.3514,-6.3594,-6.3634,-6.373,-6.3782,-6.3856,-6.3844,-6.3754,-6.4039,-6.3913,-6.4044,-6.4045,-6.4108,-6.4105,-6.4494,-6.4143,-6.4142,-6.4142,-6.4141,0,-6.3153,-6.3303,-6.3292,-6.3394,-6.3559,-6.3533,-6.3697,-6.3719,-6.3768,-6.3872,-6.3815,-6.3914,-6.3892,-6.399,-6.3981,-6.414,-6.4164,-6.4169,-6.4165,-6.4175,-6.4175,-6.4211,-6.4194,-6.4152,-6.4149,-6.4147,-6.4146,0,-6.3448,-6.3447,-6.3623,-6.367,-6.3685,-6.3805,-6.3845,-6.3941,-6.3947,-6.408,-6.4109,-6.4119,-6.4232,-6.4227,-6.4354,-6.4348,-6.4544,-6.4519,-6.4524,-6.4519,-6.465,-6.4638,-6.5077,-6.5133,-6.4746,-6.4749,-6.4752,0,-6.3643,-6.3757,-6.3816,-6.3881,-6.3917,-6.4024,-6.4087,-6.4065,-6.4133,-6.4211,-6.4298,-6.4404,-6.4489,-6.4672,-6.4691,-6.4788,-6.4765,-6.4912,-6.4779,-6.4785,-6.4767,-6.4761,-6.4772,-6.4938,-6.4943,-6.4946,-6.4949,0,-6.3989,-6.3982,-6.4076,-6.4169,-6.4246,-6.4319,-6.4385,-6.4442,-6.4426,-6.4505,-6.462,-6.4685,-6.4815,-6.4922,-6.5014,-6.5045,-6.4995,-6.499,-6.5026,-6.5037,-6.5035,-6.5038,-6.4595,-6.4981,-6.4978,-6.4975,-6.4974,-6.4972,-6.4241,-6.4338,-6.4394,-6.45,-6.4547,-6.4609,-6.4701,-6.4719,-6.4813,-6.4917,-6.4898,-6.5026,-6.5082,-6.5201,-6.5241,-6.534,-6.5287,-6.5339,-6.5352,-6.5365,-6.538,-6.5019,-6.5357,-6.5356,-6.5355,-6.5354,-6.5353,0,-6.4584,-6.4616,-6.4713,-6.4807,-6.489,-6.4834,-6.4904,-6.4977,-6.509,-6.5148,-6.5232,-6.5362,-6.5465,-6.5491,-6.5589,-6.5664,-6.5643,-6.569,-6.5685,-6.5693,-6.5421,-6.5381,-6.5705,-6.5705,-6.5705,-6.5705,-6.5705,-6.5705,-6.4772,-6.4933,-6.4933,-6.5116,-6.5147,-6.5272,-6.5316,-6.5373,-6.5419,-6.5567,-6.5652,-6.5668,-6.5712,-6.5813,-6.5905,-6.5909,-6.5948,-6.6005,-6.6001,-6.5747,-6.5712,-6.5679,-6.564,-6.6014,-6.6014,-6.6264,-6.6266,-6.6268]},{"header":{"parameterUnit":"m.s-1","parameterCategory":1,"la1":30.2991,"la2":30.254,"lo1":-89.0895,"lo2":-89.0444,"dy":0.0017,"dx":0.0017,"nx":28,"ny":28,"refTime":"2025-01-20T09:00:00:Z","depth":0,"parameterNumber":3,"parameterNumberName":"V-component_of_WINDS"},"data":[0,0,0,0,0,0,0,0,0,0,0,0,0,0,0,0,0,0,0,0,0,0,0,0,0,0,0,0,0,0,0,0,0,0,0,0,0,0,0,0,0,0,0,0,0,0,0,0,0,0,0,0,0,0,0,0,0,0,-5.2434,-5.2435,0,-5.2516,-5.2517,-5.2518,-5.2483,-5.2481,-5.2479,-5.2478,-5.2557,-5.2561,-5.2565,0,0,0,0,0,0,0,0,0,0,0,0,0,-5.2243,-5.2247,-5.2434,-5.2435,-5.2436,-5.2516,-5.2517,-5.2518,-5.2484,-5.2481,-5.2479,-5.2477,-5.2556,-5.256,-5.2565,0,0,0,0,0,0,0,0,0,0,0,0,0,-5.2325,-5.2248,-5.2434,-5.2429,-5.2429,-5.2516,-5.2517,-5.2518,-5.2484,-5.2481,-5.2478,-5.2476,-5.2554,-5.256,-5.2566,-5.2661,0,0,-5.2584,-5.2586,0,0,0,0,0,0,0,0,-5.2321,-5.2332,-5.2429,-5.2429,-5.243,-5.2487,-5.2479,-5.2566,-5.2485,-5.2463,-5.2477,-5.2474,-5.2536,-5.2543,-5.2564,-5.2664,-5.2668,-5.2584,-5.2588,-5.259,-5.2592,0,0,0,0,0,0,0,-5.2315,-5.2329,-5.2467,-5.243,-5.2431,-5.2421,-5.2429,-5.2495,-5.2515,-5.2465,-5.2463,-5.2473,-5.2535,-5.2559,-5.2566,-5.2669,-5.2584,-5.2589,-5.2593,-5.2595,-5.2848,-5.2851,0,0,0,0,0,0,-5.231,-5.2324,-5.2464,-5.2469,-5.2367,-5.2426,-5.2436,-5.2471,-5.2514,-5.2518,-5.2475,-5.2471,-5.255,-5.2559,-5.2569,-5.2681,-5.259,-5.2596,-5.2599,-5.2845,-5.2849,-5.2852,0,0,0,0,0,0,-5.2306,-5.2323,-5.2461,-5.2396,-5.2413,-5.2433,-5.2473,-5.2474,-5.2498,-5.2522,-5.2525,-5.2496,-5.2548,-5.256,-5.2638,-5.2683,-5.2598,-5.2604,-5.2841,-5.2846,-5.285,-5.2907,0,0,0,0,0,0,-5.2301,-5.2322,-5.236,-5.2397,-5.2416,-5.253,-5.2476,-5.2478,-5.2509,-5.2504,-5.2542,-5.2546,-5.2547,-5.2629,-5.2644,-5.269,-5.2608,-5.2837,-5.2843,-5.2849,-5.2902,-5.2914,-5.2924,0,0,0,0,0,-5.2294,-5.2372,-5.2362,-5.2379,-5.2464,-5.2533,-5.2544,-5.2545,-5.2513,-5.255,-5.2565,-5.2544,-5.2676,-5.2637,-5.2653,-5.2702,-5.2834,-5.2842,-5.2848,-5.2897,-5.2911,-5.2924,0,0,0,0,0,0,-5.2338,-5.2377,-5.2366,-5.2459,-5.2493,-5.2527,-5.2574,-5.2561,-5.2604,-5.2597,-5.2595,-5.2604,-5.2684,-5.2701,-5.2657,-5.2795,-5.275,-5.2761,-5.2781,-5.2795,-5.2806,-5.28,-5.2613,0,0,0,0,0,-5.2359,-5.2413,-5.2443,-5.2522,-5.254,-5.2554,-5.2584,-5.2582,-5.2617,-5.2631,-5.2651,-5.2685,-5.2733,-5.2765,-5.2811,-5.2904,-5.291,-5.2945,-5.2956,-5.2965,-5.2974,-5.3022,-5.3037,-5.2876,-5.2876,-5.2875,0,0,-5.2402,-5.2429,-5.2464,-5.2532,-5.2558,-5.2612,-5.2567,-5.2626,-5.2665,-5.2639,-5.2713,-5.273,-5.2766,-5.2851,-5.289,-5.2868,-5.302,-5.2974,-5.2981,-5.2985,-5.3031,-5.3046,-5.3059,-5.288,-5.288,-5.2879,0,0,-5.2507,-5.2535,-5.2602,-5.263,-5.267,-5.2679,-5.2695,-5.2731,-5.2741,-5.2816,-5.2797,-5.2843,-5.2927,-5.2954,-5.2978,-5.3092,-5.3074,-5.3107,-5.3164,-5.3211,-5.3224,-5.3235,-5.3273,-5.3287,-5.3116,-5.3116,-5.3116,0,-5.2555,-5.2637,-5.2639,-5.27,-5.2729,-5.2708,-5.2775,-5.2801,-5.2854,-5.2874,-5.2849,-5.2954,-5.2977,-5.3066,-5.3094,-5.3115,-5.3132,-5.3102,-5.3222,-5.3233,-5.3244,-5.328,-5.3295,-5.3119,-5.3119,-5.3119,-5.3118,0,-5.2693,-5.275,-5.28,-5.2852,-5.2887,-5.2951,-5.296,-5.2994,-5.2989,-5.2999,-5.3074,-5.3102,-5.3152,-5.3173,-5.3168,-5.3262,-5.3246,-5.3222,-5.3177,-5.3263,-5.3297,-5.3311,-5.3125,-5.3123,-5.3122,-5.3121,0,0,-5.2829,-5.2881,-5.2899,-5.2921,-5.2964,-5.3007,-5.3069,-5.3119,-5.3148,-5.3185,-5.3235,-5.3306,-5.3283,-5.3311,-5.3308,-5.335,-5.3435,-5.332,-5.332,-5.3339,-5.3537,-5.3554,-5.357,-5.3424,-5.3427,-5.3429,-5.3533,0,-5.2936,-5.3046,-5.3048,-5.3148,-5.3199,-5.3179,-5.3233,-5.3263,-5.3275,-5.3318,-5.333,-5.338,-5.3347,-5.3363,-5.3403,-5.3416,-5.3475,-5.3409,-5.3468,-5.347,-5.3458,-5.3588,-5.3607,-5.3704,-5.3547,-5.3549,-5.3551,0,-5.3076,-5.3118,-5.3223,-5.3257,-5.3278,-5.3326,-5.3371,-5.3414,-5.3448,-5.3453,-5.3483,-5.3474,-5.3534,-5.3488,-5.357,-5.3525,-5.3549,-5.3559,-5.3563,-5.3567,-5.3515,-5.3594,-5.3735,-5.3749,-5.3572,-5.357,-5.3569,0,-5.3162,-5.3245,-5.3318,-5.3338,-5.338,-5.3413,-5.3432,-5.3463,-5.3492,-5.3531,-5.3549,-5.3595,-5.3619,-5.3653,-5.3655,-5.3622,-5.3737,-5.3691,-5.3741,-5.3741,-5.3765,-5.3763,-5.391,-5.3783,-5.3783,-5.3783,-5.3783,0,-5.3281,-5.3345,-5.3357,-5.3402,-5.3473,-5.3473,-5.3543,-5.3558,-5.3585,-5.3631,-5.3617,-5.366,-5.3661,-5.3704,-5.3706,-5.3772,-5.3784,-5.3788,-5.3787,-5.3788,-5.3787,-5.3803,-5.3795,-5.3787,-5.3786,-5.3785,-5.3784,0,-5.3388,-5.3399,-5.3477,-5.351,-5.352,-5.357,-5.3597,-5.3638,-5.3648,-5.3706,-5.3719,-5.3734,-5.3784,-5.379,-5.3848,-5.3849,-5.3928,-5.3921,-5.3917,-5.3915,-5.3964,-5.3958,-5.4124,-5.4145,-5.4007,-5.4008,-5.4009,0,-5.3463,-5.3512,-5.355,-5.358,-5.3601,-5.365,-5.368,-5.3682,-5.3713,-5.3754,-5.379,-5.3838,-5.3877,-5.3957,-5.3972,-5.4016,-5.4008,-5.4064,-5.4015,-5.4014,-5.4007,-5.4003,-5.4007,-5.4073,-5.4074,-5.4075,-5.4076,0,-5.3593,-5.3596,-5.364,-5.3686,-5.3723,-5.3759,-5.3793,-5.3818,-5.3823,-5.3859,-5.391,-5.3941,-5.4,-5.4047,-5.409,-5.4107,-5.4092,-5.4092,-5.4105,-5.4106,-5.4101,-5.4102,-5.3941,-5.4088,-5.4087,-5.4086,-5.4085,-5.4085,-5.3685,-5.3727,-5.376,-5.3809,-5.3835,-5.3867,-5.3907,-5.3921,-5.3965,-5.4014,-5.4012,-5.4068,-5.4097,-5.4154,-5.4173,-5.4216,-5.4197,-5.4217,-5.4222,-5.4226,-5.423,-5.4095,-5.4224,-5.4223,-5.4223,-5.4223,-5.4222,0,-5.3812,-5.3833,-5.3878,-5.3926,-5.3964,-5.3949,-5.3985,-5.4017,-5.4067,-5.4097,-5.4135,-5.4193,-5.4239,-5.4257,-5.4301,-5.4331,-5.4325,-5.4342,-5.4339,-5.4343,-5.4245,-5.4228,-5.4346,-5.4346,-5.4346,-5.4346,-5.4346,-5.4346,-5.3883,-5.3953,-5.3959,-5.404,-5.4059,-5.4115,-5.4136,-5.4165,-5.4188,-5.4254,-5.4292,-5.4304,-5.4328,-5.4374,-5.4414,-5.4418,-5.4434,-5.4454,-5.4454,-5.4362,-5.435,-5.4338,-5.4322,-5.4458,-5.4458,-5.4548,-5.4549,-5.4549]}]]